APRIZESAT 7

Last updated on July 6, 2021, 3:44 p.m. UTC

1 39416U 13066A   21186.96080738  .00000175  00000-0  26698-4 0  9996
2 39416  97.5376 180.3351 0042469  60.9520 299.5940 14.84087371412671
UTC
Height (km)
Latitude
Longitude
Inclination
Orbital Period
UTC large
Height (km)
Speed (km/s)
/
Latitude / Longitude
Inclination (degrees)
Orbital Period (minutes)
Azimuth
Elevation
Range (km)
Doppler Factor
iOS Compass Heading
iOS Angle